Voltar ao catálogo

NOAA 16 DEB

AtivoSSO
NORAD 42429·DEBRIS·🇺🇸 United States

Lançado Sep 21, 2000 de Vandenberg Space Force Base

Loading…

Próximas Passagens (próximas 24 horas)

TLE

AtualizadoSource: Space-Track

Época: Sep 12, 2026, 11:24 UTC

1 42429U 00055TZ  26255.47539662  .00004738  00000-0  15978-2 0  9997
2 42429  98.8288 344.0736 0022568 267.7937  92.0664 14.37331270518795

Acompanhe NOAA 16 DEB em tempo real com AllMySat

Download on the App Store